Tracking 26922 objects as of 1-Feb-2023
HD Live streaming from Space Station
objects crossing your sky now

COSMOS 886 DEB

Track COSMOS 886 DEB now!
10-day predictions


NORAD ID: 13507
Int'l Code: 1976-126BK
Perigee: 1,008.6 km
Apogee: 2,438.4 km
Inclination: 65.8 °
Period: 120.8 minutes
Semi major axis: 8094 km
RCS: 0.026 m2 (small)
Launch date: December 27, 1976
Source: Commonwealth of Independent States (former USSR) (CIS)
Launch site: TYURATAM MISSILE AND SPACE COMPLEX (TTMTR)

Note: This is SATELLITE DEBRIS
Your satellite tracking list
Your tracking list is empty




NASA's NSSDC Master Catalog

Two Line Element Set (TLE):
1 13507U 76126BK  23031.58337285  .00000014  00000-0  28741-3 0  9998
2 13507  65.7527 233.4491 0883206 329.0600  54.5403 11.92108234813850
Source of the keplerian elements: AFSPC